全部
Dimmit County Airport (Carrizo Springs, TX) CZT 天气
|
Carrizo Springs, TX (KCZT)
晴天
静风 |
|
13 °C |
There is no TAF data available at CZT or any nearby airports.
CZT近期METAR历史数据
| Date | Time (CDT) | Flight Rules | Wind Dir. | Speed | Type | Height AGL (ft) | Visibility | Temp (°C) | Temp (°F) | Dew Point (°C) | Dew Point (°F) | Rel. Humid. | Pressure | Density Altitude | Remarks |
|---|---|---|---|---|---|---|---|---|---|---|---|---|---|---|---|
| 03-五月 | 01:55 | VFR | Calm | 10 miles | 13° | 55° | 13° | 55° | 100% | 30.19 in Hg | 88 ft | ||||
| 03-五月 | 01:35 | VFR | Calm | 10 miles | 14° | 57° | 14° | 57° | 100% | 30.20 in Hg | 198 ft | ||||
| 03-五月 | 01:15 | VFR | Calm | 10 miles | 14° | 57° | 14° | 57° | 100% | 30.20 in Hg | 198 ft | ||||
| 03-五月 | 00:55 | VFR | Calm | 10 miles | 13° | 55° | 13° | 55° | 100% | 30.19 in Hg | 88 ft | ||||
| 03-五月 | 00:35 | VFR | Calm | 10 miles | 14° | 57° | 14° | 57° | 100% | 30.19 in Hg | 208 ft | ||||
| 03-五月 | 00:15 | VFR | Calm | 10 miles | 14° | 57° | 14° | 57° | 100% | 30.19 in Hg | 208 ft | ||||
| 02-五月 | 23:55 | VFR | 160° | 4 kt | 10 miles | 14° | 57° | 14° | 57° | 100% | 30.18 in Hg | 218 ft | |||
| 02-五月 | 23:35 | VFR | 160° | 3 kt | 10 miles | 15° | 59° | 15° | 59° | 100% | 30.18 in Hg | 338 ft | |||
| 02-五月 | 23:15 | VFR | 170° | 3 kt | 10 miles | 15° | 59° | 15° | 59° | 100% | 30.18 in Hg | 338 ft | |||
| 02-五月 | 22:55 | VFR | 160° | 3 kt | 10 miles | 15° | 59° | 15° | 59° | 100% | 30.18 in Hg | 338 ft | |||
| 02-五月 | 22:15 | VFR | 160° | 3 kt | 10 miles | 16° | 60° | 13° | 55° | 82% | 30.17 in Hg | 468 ft | |||
| 02-五月 | 21:55 | VFR | 160° | 4 kt | 10 miles | 16° | 60° | 13° | 55° | 82% | 30.17 in Hg | 468 ft | |||
| 02-五月 | 21:35 | VFR | 150° | 3 kt | 10 miles | 16° | 60° | 13° | 55° | 82% | 30.16 in Hg | 478 ft | |||
| 02-五月 | 21:15 | VFR | 160° | 3 kt | 10 miles | 17° | 62° | 13° | 55° | 77% | 30.16 in Hg | 598 ft | |||
| 02-五月 | 20:55 | VFR | Calm | 10 miles | 18° | 64° | 12° | 53° | 68% | 30.15 in Hg | 728 ft | ||||
| 02-五月 | 20:35 | VFR | 140° | 3 kt | 10 miles | 19° | 66° | 9° | 48° | 52% | 30.14 in Hg | 858 ft | |||
| 02-五月 | 20:15 | VFR | 130° | 4 kt | 10 miles | 20° | 68° | 8° | 46° | 46% | 30.13 in Hg | 988 ft | |||
| 02-五月 | 19:55 | VFR | 130° | 3 kt | 10 miles | 22° | 71° | 8° | 46° | 41% | 30.12 in Hg | 1,238 ft | |||
| 02-五月 | 19:35 | VFR | 120° | 5 kt | 10 miles | 22° | 71° | 8° | 46° | 41% | 30.12 in Hg | 1,238 ft | |||
| 02-五月 | 19:15 | VFR | 120° | 3 kt | 10 miles | 23° | 73° | 8° | 46° | 38% | 30.12 in Hg | 1,358 ft | |||
| 02-五月 | 18:55 | VFR | 100° | 5 kt | 10 miles | 24° | 75° | 8° | 46° | 36% | 30.12 in Hg | 1,478 ft | |||
| 02-五月 | 18:15 | VFR | 90° | 5 kt | 10 miles | 25° | 77° | 9° | 48° | 36% | 30.12 in Hg | 1,598 ft | |||
| 02-五月 | 17:55 | VFR | 80° | 5 kt | 10 miles | 25° | 77° | 9° | 48° | 36% | 30.12 in Hg | 1,598 ft | |||
| 02-五月 | 17:35 | VFR | 70° | 3 kt | 10 miles | 24° | 75° | 8° | 46° | 36% | 30.13 in Hg | 1,468 ft |
登录
| 您的浏览器不支持. 升级您的浏览器 |
